Anchorage Merrill, AK

10:04 AM AKDT on July 24, 2017 (GMT -0800)
Merrill

Weather History for PAMR - August, 2013

Change the Weather History Date:

Thursday, August 29, 2013

  Actual Average Record
Temperature  
Mean Temperature 54 °F -  
Max Temperature 57 °F 60 °F 73 °F (2016)
Min Temperature 51 °F 46 °F 39 °F (2015)
Degree Days  
Heating Degree Days 11    
Growing Degree Days 4 (Base 50)    
Moisture  
Dew Point 52 °F    
Average Humidity 92    
Maximum Humidity 97    
Minimum Humidity 86    
Precipitation  
Precipitation 0.15 in - - ()
Sea Level Pressure  
Sea Level Pressure 29.70 in    
Wind  
Wind Speed 5 mph (North)    
Max Wind Speed 8 mph    
Max Gust Speed -    
Visibility 10 miles    
Events Rain    
Averages and records for this station are not official NWS values.
T = Trace of Precipitation, MM = Missing Value Source: NWS Daily Summary

Daily Weather History Graph

Daily Weather History Graph

Search for Another Location

Airport or City:

Trip Planner

Search our weather history database for the weather conditions in past years. The results will help you decide how hot, cold, wet, or windy it might be!

Date:

Astronomy

Aug. 29, 2013 Rise Set
Actual Time 6:44 AM AKDT 9:13 PM AKDT
Civil Twilight 5:56 AM AKDT 10:01 PM AKDT
Nautical Twilight 4:52 AM AKDT 11:04 PM AKDT
Astronomical Twilight 3:16 AM AKDT 12:36 AM AKDT
Moon No Moon Rise 5:47 PM AKDT (8/29)
Length of Visible Light 16h 04m
Length of Day
14h 29m
Last Quarter, 36% of the Moon is Illuminated
Aug 29
Last Quarter
Sep 5
New
Sep 12
First Quarter
Sep 19
Full
Sep 26
Last Quarter

Hourly Weather History & Observations

Time (AKDT) Temp. Dew Point Humidity Pressure Visibility Wind Dir Wind Speed Gust Speed Precip Events Conditions
12:53 AM 54.0 °F 52.0 °F 93% 29.57 in 10.0 mi NNE 8.1 mph - 0.03 in Rain Light Rain
1:53 AM 54.0 °F 52.0 °F 93% 29.56 in 10.0 mi North 5.8 mph - 0.00 in Rain Light Rain
2:53 AM 54.0 °F 52.0 °F 93% 29.55 in 10.0 mi North 4.6 mph - 0.01 in Rain Light Rain
3:53 AM 53.1 °F 51.1 °F 93% 29.56 in 10.0 mi North 4.6 mph - 0.01 in Rain Light Rain
4:53 AM 53.1 °F 51.1 °F 93% 29.57 in 10.0 mi North 5.8 mph - 0.01 in Rain Light Rain
5:53 AM 52.0 °F 50.0 °F 93% 29.57 in 10.0 mi NNW 6.9 mph - 0.01 in Rain Light Rain
6:53 AM 52.0 °F 50.0 °F 93% 29.58 in 10.0 mi North 5.8 mph - 0.02 in Rain Light Rain
7:53 AM 52.0 °F 50.0 °F 93% 29.60 in 10.0 mi North 3.5 mph - 0.00 in   Overcast
8:00 AM 51.8 °F 50.0 °F 94% 29.60 in 10.0 mi North 3.5 mph - N/A   Overcast
8:53 AM 53.1 °F 50.0 °F 89% 29.62 in 10.0 mi North 4.6 mph - N/A   Overcast
9:29 AM 53.6 °F 50.0 °F 88% 29.62 in 10.0 mi NNW 8.1 mph - N/A   Overcast
9:53 AM 53.1 °F 50.0 °F 89% 29.64 in 10.0 mi North 4.6 mph - N/A   Overcast
10:53 AM 54.0 °F 51.1 °F 90% 29.66 in 10.0 mi Variable 4.6 mph - N/A   Overcast
11:53 AM 55.0 °F 51.1 °F 86% 29.68 in 10.0 mi North 6.9 mph - 0.00 in   Overcast
12:53 PM 55.0 °F 52.0 °F 89% 29.71 in 10.0 mi NNE 5.8 mph - 0.01 in Rain Light Rain
1:03 PM 55.4 °F 51.8 °F 88% 29.71 in 10.0 mi NNE 4.6 mph - 0.00 in Rain Light Rain
1:53 PM 55.0 °F 53.1 °F 93% 29.73 in 10.0 mi NNW 4.6 mph - 0.01 in Rain Light Rain
2:47 PM 55.4 °F 53.6 °F 94% 29.75 in 10.0 mi North 5.8 mph - 0.01 in Rain Light Rain
2:53 PM 55.9 °F 53.1 °F 90% 29.76 in 10.0 mi North 4.6 mph - 0.02 in Rain Light Rain
3:40 PM 55.4 °F 53.6 °F 94% 29.77 in 10.0 mi North 4.6 mph - 0.00 in Rain Light Rain
3:53 PM 55.9 °F 53.1 °F 90% 29.78 in 10.0 mi North 4.6 mph - 0.00 in Rain Light Rain
4:53 PM 57.0 °F 54.0 °F 89% 29.79 in 10.0 mi North 5.8 mph - 0.01 in Rain Light Rain
5:53 PM 57.0 °F 54.0 °F 89% 29.81 in 10.0 mi North 4.6 mph - 0.01 in Rain Light Rain
6:53 PM 57.0 °F 55.0 °F 93% 29.82 in 10.0 mi North 6.9 mph - 0.00 in   Overcast
7:53 PM 57.0 °F 55.0 °F 93% 29.83 in 10.0 mi Calm Calm - N/A   Overcast
8:53 PM 55.9 °F 55.0 °F 97% 29.83 in 10.0 mi Calm Calm - N/A   Overcast
9:53 PM 55.9 °F 54.0 °F 93% 29.84 in 10.0 mi Calm Calm - N/A   Overcast
10:53 PM 55.0 °F 54.0 °F 96% 29.86 in 10.0 mi NNW 3.5 mph - N/A   Overcast
11:50 PM 55.4 °F 53.6 °F 94% 29.87 in 10.0 mi Calm Calm - N/A   Overcast
11:53 PM 55.9 °F 54.0 °F 93% 29.87 in 10.0 mi Calm Calm - N/A   Overcast